星链-1417 (STARLINK-1417 )

导读

STARLINK-1417是美国SpaceX公司星链(Starlink)星座中的卫星,于美国东部时间2020年6月4日发射入轨,属于星链一期低轨互联网星座组网卫星。星链旨在搭建全球覆盖的卫星互联网通信系统,为全球用户提供宽带接入服务。该卫星运行在近地轨道,承担信号转发和通信组网功能,是星链大规模星座建设中较早发射的组网卫星之一,助力星链逐步实现全球通信覆盖目标。

Basic Information
目录编号:
45693
目录名称:
STARLINK-1417
国际标识:
2020-035AN
轨道中心:
EARTH
卫星名称:
星链-1417
卫星全名:
星链-1417 (STARLINK-1417 )
卫星状态:
在轨 (已飞行2290 天)
发射日期:
2020-06-04 UTC
国别 :
美国 (US)
星等 :
--
This satellite is enrolled in the Space Conjunction Data Service (SCDS) and the current flight risk assessment level is: No High Risk
Orbit Information
数据来源 国际轨道数据
星历时间: 2026-09-11T11:19:11+0800
11小时前
查看轨道信息
半长轴: 6881.021km
偏心率: 0.0003939
轨道倾角: 53.047°
近地点辐角 76.001°
升交点赤经 288.137°
平近点角 284.142°
近地点: 500.173km
远地点: 505.595km
周期: 94.676分钟
每日圈数: 15.209799
Detailed Information
固有亮度:
5
最大亮度:
2.5
卫星平台:
Starlink V1.0
覆盖范围:
全球
运营商:
太空探索技术公司
运营商所在国:
美国
制造商(研发单位):
太空探索技术公司
制造商所在国:
美国
使用方式:
暂无
Satellite Introduction
星链(Starlink)计划是由太空探索技术公司(SpaceX)提出的一个巨型低轨卫星互联网星座项目,计划在2019年至2024年间在太空搭建由约1.2万颗卫星组成的“星链”网络,其中1584颗将部署在地球上空550千米处的近地轨道,并从2020年开始工作。该卫星仍在工作。
2D Orbit Map
3D Orbit Map
Orbit Altitude Analysis Chart
Orbit Inclination Analysis Chart
Orbit Comprehensive Analysis Chart
View Comprehensive Chart
Conjunction Data List
Event ID Objects TCA Miss Dist (km) Collision Risk Probability Collision Risk Index (CRI) Action
CDM_260911-174404-569306-672323
2026-09-11T
17:44:03+0000
0.673 km
远距离
6.117376E-5 中风险 0.71
CDM_260908-101004-569306-455321
2026-09-08T
10:10:13+0000
0.716 km
远距离
5.865604E-5 中风险 0.7
CDM_260913-224301-290404-569321
SL-3 R/B (12904)
2026-09-13T
22:43:55+0000
1.694 km
极远距离
3.335622E-6 低风险 0.45
CDM_260911-183104-569306-672323
2026-09-11T
18:31:22+0000
1.741 km
极远距离
2.709323E-6 低风险 0.44
CDM_260913-100804-569306-774621
OBJECT A (67746)
2026-09-13T
10:08:11+0000
2.239 km
极远距离
1.951577E-6 低风险 0.41
CDM_260908-092204-569306-455321
2026-09-08T
09:22:53+0000
2.989 km
极远距离
1.035075E-6 低风险 0.35
Miss Distance Evolution Trend with All Objects
Collision Probability Evolution Trend with All Objects